Location: Utrecht
(52.0907°N, 5.1214°E)
Time: 02:31:39
(UTC+01:00)

HJ-1B - Visible Passes

Search period start: 10 December 2022 00:00
Search period end: 20 December 2022 00:00
Orbit: 611 x 660 km, 97.7° (Epoch: 09 December)

Date Brightness Start Highest point End Pass type
(mag) Time Alt. Az. Time Alt. Az. Time Alt. Az.
10 Dec 8.9 07:53:47 10° NE 07:57:35 28° E 08:01:25 10° SSE visible
10 Dec 8.8 19:03:25 13° N 19:03:25 13° N 19:04:00 10° N visible
11 Dec 8.9 19:25:40 13° N 19:25:40 13° N 19:26:09 10° N visible
12 Dec 8.7 18:10:25 11° NNE 18:10:25 11° NNE 18:10:41 10° NNE visible
12 Dec 9.2 19:47:54 12° NNW 19:47:54 12° NNW 19:48:11 10° NNW visible
13 Dec 9.6 07:24:12 10° NE 07:26:55 16° E 07:29:36 10° SE visible
13 Dec 8.7 18:32:40 13° NNE 18:32:40 13° NNE 18:33:13 10° N visible
14 Dec 9.2 07:45:32 10° NE 07:49:10 24° E 07:52:48 10° SSE visible
14 Dec 8.7 18:54:53 14° N 18:54:53 14° N 18:55:32 10° N visible
15 Dec 8.8 19:17:05 14° N 19:17:05 14° N 19:17:43 10° N visible
16 Dec 8.7 18:01:49 11° NNE 18:01:49 11° NNE 18:02:02 10° NNE visible
16 Dec 9.0 19:39:18 13° NNW 19:39:18 13° NNW 19:39:48 10° NNW visible
17 Dec 9.7 07:16:11 10° NE 07:18:24 13° E 07:20:38 10° ESE visible
17 Dec 8.6 18:24:00 13° NNE 18:24:00 13° NNE 18:24:40 10° N visible
17 Dec 9.3 20:01:29 12° NNW 20:01:29 12° NNW 20:01:46 10° NNW visible
18 Dec 9.4 07:37:17 10° NE 07:40:41 21° E 07:44:05 10° SE visible
18 Dec 8.6 18:46:11 15° N 18:46:11 15° N 18:47:02 10° N visible
19 Dec 8.7 07:58:50 10° NNE 08:02:52 32° E 08:06:54 10° SSE visible
19 Dec 8.6 19:08:21 16° N 19:08:21 16° N 19:09:16 10° N visible
